Miscellaneous Local Product
Issued by NWS North Platte, NE

Home | Current Version | Previous Version | Graphics & Text | Print | Product List | Glossary On
Versions: 1 2 3 4 5 6 7 8 9 10 11 12 13 14 15 16 17 18 19 20 21 22 23 24 25 26 27 28 29 30 31 32 33 34 35 36 37 38 39 40 41 42 43 44 45 46 47 48 49 50
000
AXUS43 KLBF 251110
MISLBF


WESTERN AND NORTH CENTRAL NEBRASKA HOURLY WEATHER ROUNDUP
NATIONAL WEATHER SERVICE NORTH PLATTE NE
600 AM CDT WED MAY 25 2016

NOTE: "FAIR" INDICATES FEW OR NO CLOUDS BELOW 12,000 FEET WITH NO
SIGNIFICANT WEATHER AND/OR OBSTRUCTIONS TO VISIBILITY.

NOTE: STATIONS NOT REPORTING VARIABLES SUCH AS SKY/WEATHER OR
PRESSURE ARE PROVIDED BY RAWS AND APRS NETWORKS AND ARE NOT UNDER
NATIONAL WEATHER SERVICE QUALITY CONTROL.

...OBSERVATIONS IN AND NEAR THE EASTERN PANHANDLE OF NEBRASKA...

CITY           SKY/WX    TMP DP  RH WIND       PRES   REMARKS
PINE RIDGE     CLOUDY    49  46  90 W3        29.86R
CHADRON        CLOUDY    44  32  62 SW7       29.87R
ALLIANCE       CLOUDY    51  50  96 CALM      29.87S
SIDNEY         MOCLDY    48  47  96 N3        29.92R
CRESCENT LAKE    N/A     51  50  98 NW6         N/A
BIG SPRINGS      N/A     56  53  90 CALM        N/A
$$

...OBSERVATIONS IN NORTHERN NEBRASKA AND FAR SOUTHERN SOUTH DAKOTA...

CITY           SKY/WX    TMP DP  RH WIND       PRES   REMARKS
WINNER         CLOUDY    59  56  89 S3        29.79F
VALENTINE      CLOUDY    57  54  89 NE5       29.82F
THEDFORD       CLOUDY    56  55  97 CALM      29.87R
AINSWORTH      CLOUDY    56  55  95 N5        29.80F
O`NEILL        CLOUDY    58  57  95 SW7       29.85R
ORD            LGT RAIN  59  57  93 S8        29.87R
BROKEN BOW     CLOUDY    58  55  90 SE9       29.82F
BUTTE            N/A     57  56  97 S5          N/A
CHAMBERS         N/A     58  56  95 S3          N/A
EWING            N/A     58  57  96 S5          N/A
$$

...OBSERVATIONS IN SOUTHWEST NEBRASKA AND FAR NORTHEAST COLORADO...

CITY           SKY/WX    TMP DP  RH WIND       PRES   REMARKS
HOLYOKE        CLOUDY    59  52  77 NE6       29.92R
IMPERIAL       CLOUDY    58  49  72 N7        29.90R
OGALLALA       PTCLDY    55  52  91 SW3       29.87F
NORTH PLATTE   CLOUDY    55  54  96 CALM      29.86R
MCCOOK         CLOUDY    59  54  83 E9        29.86R
LEXINGTON      CLOUDY    58  55  89 SE9       29.87F
PAXTON           N/A     55  52  91 E6          N/A
STAPLETON        N/A     53  51  93 NW3         N/A
GOTHENBURG       N/A     57  53  85 CALM        N/A
CALLAWAY         N/A     56  54  94 NE5         N/A
$$

...OBSERVATIONS IN CENTRAL LINCOLN COUNTY AREA...

CITY           SKY/WX    TMP DP  RH WIND       PRES   REMARKS
N.P. AIRPORT   CLOUDY    55  54  96 CALM      29.86R
N.P. DOWNTOWN    N/A     55  55 100 W9G22       N/A
N.P. SOUTHEAST   N/A     56  54  94 NW6G15      N/A
N.P. HILLCREST   N/A     56  54  93 NW15G22     N/A
$$

...SOME OBSERVATIONS FROM AROUND THE REGION...

CITY           SKY/WX    TMP DP  RH WIND       PRES   REMARKS
DENVER         PTCLDY    48  41  76 NW10      29.96R
LARAMIE        MOCLDY    35  32  88 SW8       30.02S WCI  29
CHEYENNE       CLEAR     46  34  62 NW10      29.97R
SCOTTSBLUFF    CLOUDY    51  47  86 VRB5      29.91R
RAPID CITY     CLEAR     44  42  93 W5        29.85R
BISMARCK       CLOUDY    58  56  93 CALM      29.81F
PIERRE         CLOUDY    55  54  96 SW7       29.75R
SIOUX FALLS    CLOUDY    60  58  92 E8        29.79F
OMAHA          LGT RAIN  65  60  84 NW5       29.82R
GRAND ISLAND   RAIN      59  58  96 NW7       29.93R FOG
KANSAS CITY    CLOUDY    69  54  58 S17G23    29.79F
WICHITA        CLOUDY    67  61  81 SE15      29.83S
OKLAHOMA CITY  PTCLDY    75  72  90 S17G25    29.87S
DALLAS         CLOUDY    78  71  79 S14G23    29.93S
AMARILLO       CLEAR     51  34  52 SW14      29.91R
DODGE CITY     CLOUDY    66  66 100 SE8       29.79R FOG
HAYS           MOCLDY    55  52  88 NE12      29.82R
GOODLAND       CLOUDY    56  56 100 NE17G25   29.86R FOG
$$




USA.gov is the U.S. government's official web portal to all federal, state and local government web resources and services.